SCOUT A R/B, 2413

Orbit data source: Space-Track

SCOUT A R/B, 2413 is space debris in LEO originally from a launch on Thu, 18 Aug 1966 UTC launched from the Air Force Western Test Range (AFWTR). Debris objects in space refer to the collection of defunct objects orbiting the Earth. Examples of debris include non-operational satellites, rocket bodies, and fragments generated from explosions, collisions, or faulty payload assembly.

Loading next visibility...
Identifier
2413, 1966-076B
Orbit
LEO
Country
Flag of USUS
Related business
Manufacturer
ABL
Mission
Spacecraft
Bus & Motor
ALTAIR, Unknown motor
Mass
33 kg wet, 33 kg dry
Launch date (UTC)
1966-08-18 (59 years ago)
Launch vehicle
Unknown
Launch site
Air Force Western Test Range (AFWTR)
Object type
Payload
Rocket body
Debris
Shape & HBR
Unknown
Radar Cross Section
Medium (>0.1 m² and <1 m²)

Expand to show TLE details & history
Last TLE update: 8 hours ago

TLE from 8 hours ago
0 SCOUT A R/B
1  2413U 66076B   26037.09232644  .00000100  00000-0  13293-3 0  9995
2  2413  88.8429  87.0894 0034299  85.9178 274.5893 13.51853175930944
Epoch: 2026-02-06T02:12Z
TLE epoch observation values (Epoch: 2026-02-06T02:12:57.004Z)
Latitude
-0°
Longitude
-82.38328°
Altitude
1,066.446 km
Speed
7.32 km/s
True Right ascension
05h 48m 21s
True Declination
0° 00' 00"
Sunlit
Object was in full shadow at epoch
Visualization orbit readout
Latitude
Unknown
Longitude
Unknown
Altitude
Unknown
Speed
Unknown
Apparent Right ascension
Unknown
Apparent Declination
Unknown
Sunlit
N/A
Visualization observer readout
Local Sidereal Time
12:26:00
Azimuth
Unknown
Elevation
Unknown
Doppler factor
Unknown
Orbital elements
Apogee altitude
1,088.019 km
Perigee altitude
1,036.978 km
Semi-major axis
7,440.636 km
Eccentricity
0.00343
Inclination
88.8429°
RAAN
87.0894°
Arg. of periapsis
85.9178°
True anomaly
274.19739°
Mean anomaly
274.5893°
Eccentric anomaly
274.39336°
Mean motion
3.38165 °/min
Orbital period
106.46 mins
BSTAR
0.00013293
Loading maneuver chart data...
Computing Atmospheric mass density...
Loading historical data...
Loading historical data...
Loading historical data...
Loading historical data...
Loading historical data...
Loading historical data...
Loading historical data...

Documentation

Showing up to 5 results
|